Weather History for Abilene, TX

Change the Weather History Date:

Tuesday, August 27, 2013

  Actual Average Record
Temperature  
Mean Temperature 78 °F 81 °F  
Max Temperature 85 °F 93 °F 104 °F (2011)
Min Temperature 71 °F 70 °F 59 °F (1906)
Degree Days  
Heating Degree Days 0 0  
Month to date heating degree days 0 0  
Since 1 June heating degree days 0 1  
Since 1 July heating degree days 0 0  
Cooling Degree Days 13 16  
Month to date cooling degree days 529 490  
Year to date cooling degree days 2075 1883  
Since 1 June cooling degree days 1594 1486  
Growing Degree Days 28 (Base 50)    
Moisture  
Dew Point 68 °F    
Average Humidity 71    
Maximum Humidity 87    
Minimum Humidity 54    
Precipitation  
Precipitation 0.09 in 0.09 in 1.18 in (1923)
Month to date precipitation 0.54 2.23  
Year to date precipitation 16.33 16.60  
Sea Level Pressure  
Sea Level Pressure 30.05 in    
Wind  
Wind Speed 10 mph (SSE)    
Max Wind Speed 22 mph    
Max Gust Speed 28 mph    
Visibility 9 miles    
Events Rain    
T = Trace of Precipitation, MM = Missing Value Source: NWS Daily Summary

Daily Weather History Graph

Daily Weather History Graph

Search for Another Location

Airport:

Trip Planner

Search our weather history database for the weather conditions in past years. The results will help you decide how hot, cold, wet, or windy it might be!

Date:

Astronomy

Aug. 27, 2013 Rise Set
Actual Time 7:10 AM CDT 8:09 PM CDT
Civil Twilight 6:45 AM CDT 8:34 PM CDT
Nautical Twilight 6:15 AM CDT 9:04 PM CDT
Astronomical Twilight 5:44 AM CDT 9:34 PM CDT
Moon No Moon Rise 1:45 PM CDT (8/27)
Length of Visible Light 13h 48m
Length of Day
12h 58m
Waning Gibbous, 57% of the Moon is Illuminated
Aug 27
Waning Gibbous
Aug 28
Last Quarter
Sep 5
New
Sep 12
First Quarter
Sep 19
Full

Hourly Weather History & Observations

Time (CDT) Temp. Heat Index Dew Point Humidity Pressure Visibility Wind Dir Wind Speed Gust Speed Precip Events Conditions
12:52 AM 78.1 °F - 61.0 °F 56% 30.01 in 10.0 mi ESE 6.9 mph - N/A   Clear
1:52 AM 75.0 °F - 62.1 °F 64% 30.01 in 10.0 mi SSE 8.1 mph - N/A   Clear
2:52 AM 73.9 °F - 64.0 °F 71% 30.01 in 10.0 mi SSE 4.6 mph - N/A   Clear
3:52 AM 73.0 °F - 64.0 °F 73% 30.01 in 10.0 mi SE 4.6 mph - N/A   Scattered Clouds
4:52 AM 73.0 °F - 64.9 °F 76% 30.01 in 10.0 mi SSE 9.2 mph - N/A   Scattered Clouds
5:52 AM 73.0 °F - 64.9 °F 76% 30.02 in 10.0 mi SSE 8.1 mph - N/A   Partly Cloudy
6:52 AM 71.1 °F - 64.9 °F 81% 30.03 in 10.0 mi SE 5.8 mph - N/A   Clear
7:52 AM 72.0 °F - 66.0 °F 81% 30.05 in 10.0 mi SSE 6.9 mph - N/A   Scattered Clouds
8:31 AM 73.4 °F - 66.2 °F 78% 30.13 in 10.0 mi South 6.9 mph - N/A   Mostly Cloudy
8:52 AM 73.9 °F - 66.0 °F 76% 30.06 in 10.0 mi South 8.1 mph - N/A   Overcast
9:48 AM 75.2 °F - 66.2 °F 73% 30.14 in 10.0 mi SSE 10.4 mph - N/A   Overcast
9:52 AM 75.9 °F - 66.0 °F 71% 30.06 in 10.0 mi SSE 10.4 mph - N/A   Overcast
10:52 AM 78.1 °F - 66.9 °F 68% 30.07 in 10.0 mi SE 8.1 mph - N/A   Overcast
11:52 AM 79.0 °F - 66.9 °F 66% 30.07 in 10.0 mi SE 16.1 mph - N/A   Overcast
12:32 PM 77.0 °F - 68.0 °F 74% 30.14 in 10.0 mi SE 17.3 mph - 0.00 in   Overcast
12:52 PM 75.0 °F - 70.0 °F 84% 30.06 in 6.0 mi ESE 13.8 mph - 0.00 in Rain Light Rain
12:59 PM 73.4 °F - 71.6 °F 94% 30.13 in 2.5 mi SE 18.4 mph 23.0 mph 0.01 in Rain Rain
1:15 PM 73.4 °F - 71.6 °F 94% 30.12 in 4.0 mi ESE 15.0 mph - 0.04 in Rain Light Rain
1:37 PM 75.2 °F - 71.6 °F 89% 30.11 in 3.0 mi ESE 11.5 mph - 0.08 in Rain Light Rain
1:52 PM 75.0 °F - 72.0 °F 90% 30.04 in 10.0 mi SE 12.7 mph - 0.09 in Rain Light Rain
2:07 PM 75.2 °F - 73.4 °F 94% 30.10 in 10.0 mi SE 10.4 mph - 0.00 in   Overcast
2:22 PM 77.0 °F - 73.4 °F 89% 30.10 in 10.0 mi SSE 16.1 mph - 0.00 in   Overcast
2:31 PM 78.8 °F - 73.4 °F 83% 30.10 in 10.0 mi South 12.7 mph - 0.00 in   Mostly Cloudy
2:52 PM 81.0 °F 84.9 °F 71.1 °F 72% 30.01 in 10.0 mi South 12.7 mph - 0.00 in   Scattered Clouds
3:15 PM 82.4 °F 86.3 °F 69.8 °F 66% 30.08 in 10.0 mi SE 16.1 mph 21.9 mph N/A   Mostly Cloudy
3:34 PM 82.4 °F 86.3 °F 69.8 °F 66% 30.08 in 10.0 mi SSE 20.7 mph - N/A   Mostly Cloudy
3:52 PM 82.0 °F 85.5 °F 69.1 °F 65% 30.00 in 10.0 mi SSE 18.4 mph - N/A   Mostly Cloudy
4:52 PM 84.0 °F 86.5 °F 66.9 °F 56% 29.99 in 10.0 mi SSE 18.4 mph 27.6 mph N/A   Clear
5:52 PM 81.0 °F 83.8 °F 68.0 °F 65% 29.99 in 10.0 mi South 13.8 mph 24.2 mph N/A   Clear
6:52 PM 80.1 °F 82.3 °F 66.9 °F 64% 29.98 in 10.0 mi South 13.8 mph - N/A   Clear
7:52 PM 79.0 °F - 68.0 °F 69% 29.99 in 10.0 mi SSE 9.2 mph - N/A   Clear
8:52 PM 78.1 °F - 69.1 °F 74% 29.99 in 10.0 mi SE 10.4 mph - N/A   Clear
9:52 PM 75.0 °F - 69.1 °F 82% 30.01 in 10.0 mi SE 10.4 mph - N/A   Clear
10:52 PM 73.9 °F - 69.1 °F 85% 30.02 in 10.0 mi SSE 9.2 mph - N/A   Clear
11:52 PM 73.9 °F - 70.0 °F 87% 30.01 in 10.0 mi SSE 8.1 mph - N/A   Clear